Location: Johnson City
(36.3130°N, 82.3540°W)
Time: 05:56:47
(UTC-04:00)

Hubble Space Telescope - Visible Passes

Search period start: 27 May 2017 00:00
Search period end: 06 June 2017 00:00
Orbit: 538 x 541 km, 28.5° (Epoch: 26 May)

Date Brightness Start Highest point End Pass type
(mag) Time Alt. Az. Time Alt. Az. Time Alt. Az.
27 May 3.1 22:25:23 10° SSW 22:25:49 12° SSW 22:25:49 12° SSW visible
28 May 2.4 22:15:00 10° SW 22:17:03 19° S 22:17:03 19° S visible
29 May 2.0 22:04:41 10° SW 22:07:58 23° S 22:08:03 23° SSE visible
30 May 2.0 21:54:25 10° SW 21:57:49 25° S 21:58:52 22° SSE visible
31 May 1.9 21:44:13 10° SW 21:47:41 26° S 21:49:32 19° SE visible
01 Jun 1.9 21:34:03 10° SW 21:37:33 27° S 21:40:05 15° SE visible
01 Jun 3.3 23:15:04 10° WSW 23:15:28 12° WSW 23:15:28 12° WSW visible
02 Jun 1.9 21:23:54 10° WSW 21:27:25 27° S 21:30:34 12° SE visible
02 Jun 3.1 23:05:06 10° WSW 23:05:55 14° SW 23:05:55 14° SW visible
03 Jun 2.0 21:13:47 10° WSW 21:17:18 27° S 21:20:49 10° SE visible
03 Jun 3.0 22:55:12 10° WSW 22:56:21 14° SW 22:56:21 14° SW visible
04 Jun 3.0 22:45:25 10° SW 22:46:43 14° SW 22:46:43 14° SW visible
05 Jun 3.0 22:35:49 10° SW 22:37:04 12° SSW 22:37:04 12° SSW visible
